GW0273 Weather Reports


Display with metric or nautical units.
time (UTC)temp
F
wind
direction
speed
MPH
gust
MPH
rain 1hr
in
rain 24hr
in
rain mn
in
humidity
%
barometer
mb
20260508191534 56 5 5.0 15.0 0.00 0.29 0.00 55 1001.8
20260508190038 55 355 4.0 10.0 0.00 0.29 0.00 58 1001.8
20260508184536 53 347 3.0 10.0 0.00 0.55 0.00 61 1002.1
20260508183032 54 333 3.0 12.0 0.00 0.55 0.00 59 1002.0
20260508181535 56 339 4.0 10.0 0.00 0.55 0.00 57 1001.7
20260508180032 56 360 3.0 15.0 0.00 0.55 0.00 60 1001.9
20260508174552 53 149 5.0 10.0 0.00 0.55 0.00 75 1002.0
20260508173032 51 141 6.0 10.0 0.00 0.55 0.00 77 1002.2
20260508171535 52 131 4.0 8.0 0.00 0.55 0.00 77 1002.0
20260508170035 51 0 2.0 5.0 0.00 0.55 0.00 78 1002.1
20260508164537 50 92 2.0 9.0 0.00 0.55 0.00 80 1002.2
20260508163055 50 113 5.0 8.0 0.00 0.55 0.00 77 1001.9
20260508161532 52 25 1.0 8.0 0.00 0.55 0.00 79 1002.1
20260508160034 51 103 5.0 9.0 0.00 0.55 0.00 79 1001.9
20260508154532 50 111 1.0 7.0 0.00 0.55 0.00 81 1002.2
20260508153033 50 103 3.0 9.0 0.00 0.55 0.00 84 1002.6
20260508151539 49 94 5.0 9.0 0.00 0.55 0.00 82 1002.6
20260508150032 50 112 4.0 8.0 0.00 0.55 0.00 81 1002.5
20260508144536 49 96 3.0 8.0 0.00 0.55 0.00 82 1002.7
20260508143032 48 105 5.0 8.0 0.00 0.55 0.00 83 1002.7
20260508141532 49 99 5.0 8.0 0.00 0.55 0.00 82 1002.9
20260508140032 48 55 2.0 8.0 0.00 0.55 0.00 86 1003.1
20260508134536 49 68 4.0 8.0 0.00 0.55 0.00 86 1003.2
20260508133034 49 91 1.0 6.0 0.00 0.55 0.00 87 1002.7
20260508131531 49 103 3.0 7.0 0.00 0.55 0.00 88 1002.9
20260508130049 48 0 0.0 8.0 0.00 0.55 0.00 89 1002.7
20260508124533 48 89 2.0 5.0 0.00 0.55 0.00 90 1002.6
20260508123036 47 84 2.0 7.0 0.00 0.55 0.00 91 1002.6
20260508121535 48 82 2.0 6.0 0.00 0.55 0.00 91 1002.8
20260508120032 48 39 0.0 5.0 0.00 0.55 0.00 92 1002.9
20260508114531 47 0 0.0 2.0 0.00 0.55 0.00 94 1002.8
20260508113035 46 215 1.0 3.0 0.00 0.55 0.00 96 1002.9
20260508111535 44 0 0.0 1.0 0.00 0.55 0.00 96 1003.4
20260508110046 44 0 0.0 0.0 0.00 0.55 0.00 97 1003.3
20260508104533 43 0 0.0 1.0 0.00 0.55 0.00 96 1003.2
20260508103037 43 0 0.0 0.0 0.00 0.55 0.00 97 1003.2
20260508101536 42 0 0.0 0.0 0.00 0.55 0.00 97 1002.9
20260508100030 41 0 0.0 0.0 0.00 0.55 0.00 97 1002.7
20260508094544 40 0 0.0 0.0 0.00 0.55 0.00 96 1002.4
20260508093050 40 0 0.0 0.0 0.00 0.55 0.00 96 1002.5
20260508091533 40 0 0.0 3.0 0.00 0.55 0.00 96 1002.5
20260508090053 40 0 0.0 1.0 0.00 0.55 0.00 96 1002.4
20260508084530 41 0 0.0 0.0 0.00 0.55 0.00 95 1002.0
20260508083032 41 0 0.0 0.0 0.00 0.55 0.00 95 1001.9
20260508081532 42 0 0.0 1.0 0.00 0.55 0.00 95 1001.7
20260508080038 42 0 0.0 0.0 0.00 0.55 0.00 95 1001.8
20260508074540 43 0 0.0 0.0 0.00 0.55 0.00 95 1002.2
20260508073032 43 0 0.0 1.0 0.00 0.55 0.00 95 1002.2
20260508071532 44 0 0.0 5.0 0.00 0.55 0.00 95 1002.2
20260508070031 44 0 0.0 5.0 0.00 0.55 0.00 95 1002.2
20260508064532 44 0 0.0 1.0 0.00 0.55 0.00 95 1002.1
20260508063035 45 0 0.0 2.0 0.00 0.55 0.00 94 1002.1
20260508061532 45 0 0.0 0.0 0.00 0.55 0.00 95 1001.9
20260508060033 45 0 0.0 2.0 0.00 0.55 0.00 95 1002.2
20260508054531 45 0 0.0 0.0 0.00 0.55 0.00 95 1002.2
20260508053032 45 0 0.0 1.0 0.00 0.55 0.00 95 1002.3
20260508051530 45 0 0.0 1.0 0.00 0.55 0.00 94 1001.9
20260508050039 44 0 0.0 0.0 0.00 0.55 0.00 94 1002.1
20260508044536 44 0 0.0 2.0 0.00 0.55 0.00 94 1001.9
20260508043031 44 0 0.0 3.0 0.00 0.55 0.00 93 1002.2
20260508041539 45 0 0.0 8.0 0.00 0.55 0.00 92 1002.2
20260508040032 46 0 0.0 5.0 0.00 0.55 0.00 92 1002.3
20260508034534 48 122 1.0 8.0 0.00 0.55 0.00 91 1002.2
20260508033037 49 81 1.0 3.0 0.00 0.55 0.00 90 1002.4
20260508031538 50 0 0.0 2.0 0.00 0.55 0.00 89 1002.2
20260508030039 50 192 3.0 12.0 0.00 0.55 0.00 87 1002.0
20260508024530 51 0 1.0 8.0 0.00 0.55 0.55 86 1002.0
20260508023041 51 277 4.0 18.0 0.00 0.55 0.55 85 1001.9
20260508021535 51 292 9.0 16.0 0.00 0.55 0.55 87 1002.1
20260508020034 51 201 8.0 18.0 0.00 0.55 0.55 89 1002.1
20260508014534 51 215 2.0 10.0 0.00 0.55 0.55 90 1002.3
20260508013032 51 0 0.0 6.0 0.00 0.55 0.55 90 1002.1
20260508011534 51 280 3.0 14.0 0.00 0.55 0.55 90 1002.1
20260508010040 51 273 3.0 8.0 0.00 0.55 0.55 91 1002.3
20260508004534 51 0 5.0 13.0 0.00 0.55 0.55 93 1002.3
20260508003032 52 196 7.0 16.0 0.00 0.55 0.55 93 1002.2
20260508001535 51 261 1.0 8.0 0.00 0.55 0.55 96 1002.2
20260508000033 51 0 3.0 8.0 0.00 0.55 0.55 96 1001.9
20260507234537 51 0 0.0 0.0 0.00 0.55 0.55 96 1001.6
20260507233034 51 0 0.0 0.0 0.00 0.55 0.55 96 1001.7
20260507231534 51 0 0.0 0.0 0.00 0.55 0.55 96 1001.5
20260507230035 51 0 0.0 4.0 0.00 0.55 0.55 94 1001.5
20260507224550 53 0 0.0 0.0 0.00 0.55 0.55 94 1001.4
20260507223034 54 0 0.0 1.0 0.00 0.55 0.55 95 1001.6
20260507221538 54 0 0.0 3.0 0.00 0.55 0.55 95 1001.5
20260507220038 54 0 0.0 4.0 0.00 0.55 0.55 96 1001.5
20260507214538 54 0 0.0 2.0 0.00 0.55 0.55 96 1001.5
20260507213036 53 0 0.0 0.0 0.01 0.55 0.55 96 1001.5
20260507211535 52 0 0.0 2.0 0.03 0.55 0.55 96 1001.8
20260507210058 52 168 3.0 8.0 0.10 0.55 0.55 95 1001.8
20260507204536 52 338 1.0 4.0 0.15 0.55 0.55 96 1001.5
20260507203032 52 0 0.0 3.0 0.18 0.54 0.54 94 1001.9
20260507201536 52 0 0.0 1.0 0.20 0.51 0.51 95 1002.3
20260507200048 53 0 0.0 2.0 0.19 0.45 0.45 94 1002.6
20260507194533 53 60 1.0 3.0 0.18 0.39 0.39 93 1003.8
20260507193100 54 0 0.0 3.0 0.23 0.36 0.36 93 1003.7